Location: Brabourne
(51.1333°N, 1.0000°E)
Time: 06:16:26
(UTC+00:00)

NOSS 3-1 (A) - Pass Details

Date: 01 November 2021
Orbit: 721 x 1491 km, 63.4° (Epoch: 22 November)

Event Time Altitude Azimuth Distance (km) Brightness Sun altitude
Rises 19:13:18 0° 266° (W) 3,365 7.6 -26.0°
Reaches altitude 10° 19:15:48 10° 275° (W) 2,521 6.7 -26.4°
Maximum altitude 19:21:09 35° 341° (NNW) 1,530 4.7 -27.2°
Enters shadow 19:24:15 24° 27° (NNE) 2,026 5.0 -27.7°
